FW5295 Weather Reports


time (UTC)temp
F
wind
direction
speed
knots
gust
knots
rain 1hr
in
rain 24hr
in
rain mn
in
humidity
%
barometer
mb
20260906112938 66 84 1.7 3.5 0.00 0.00 0.00 99 1017.5
20260906112436 66 72 0.9 3.5 0.00 0.00 0.00 99 1017.8
20260906111936 67 110 0.0 4.3 0.00 0.00 0.00 99 1017.5
20260906111436 67 86 4.3 4.3 0.00 0.00 0.00 99 1017.5
20260906110936 67 91 1.7 2.6 0.00 0.00 0.00 99 1017.5
20260906110447 67 95 1.7 3.5 0.00 0.00 0.00 99 1017.5
20260906105934 67 49 1.7 3.5 0.00 0.00 0.00 99 1017.5
20260906105434 67 93 2.6 3.5 0.00 0.00 0.00 99 1017.5
20260906105154 67 81 1.7 3.5 0.00 0.00 0.00 99 1017.5
20260906104433 67 96 1.7 4.3 0.00 0.00 0.00 99 1017.1
20260906103934 67 91 1.7 4.3 0.00 0.00 0.00 99 1017.5
20260906103433 67 138 0.9 2.6 0.00 0.00 0.00 99 1017.5
20260906102931 67 348 0.9 2.6 0.00 0.00 0.00 99 1017.1
20260906102430 66 81 1.7 2.6 0.00 0.00 0.00 99 1017.1
20260906101932 66 10 0.9 2.6 0.00 0.00 0.00 99 1017.1
20260906101429 66 83 0.9 2.6 0.00 0.00 0.00 99 1017.1
20260906100930 66 2 0.9 2.6 0.00 0.00 0.00 98 1017.1
20260906100429 66 37 0.0 1.7 0.00 0.00 0.00 98 1017.1
20260906095928 66 31 0.9 2.6 0.00 0.00 0.00 98 1017.1
20260906095428 66 73 1.7 2.6 0.00 0.00 0.00 98 1017.1
20260906095146 66 51 0.9 2.6 0.00 0.00 0.00 98 1017.1
20260906094652 65 87 0.9 1.7 0.00 0.00 0.00 98 1017.1
20260906094146 65 10 0.0 1.7 0.00 0.00 0.00 98 1017.1
20260906093425 65 55 0.0 0.9 0.00 0.00 0.00 98 1017.1
20260906092925 65 75 0.0 3.5 0.00 0.00 0.00 98 1016.7
20260906092425 65 60 0.0 3.5 0.00 0.00 0.00 98 1017.1
20260906091926 65 246 0.0 0.9 0.00 0.00 0.00 98 1016.7
20260906091423 65 4 0.0 0.9 0.00 0.00 0.00 98 1017.1
20260906090922 65 124 0.0 0.9 0.00 0.00 0.00 98 1017.1
20260906090424 65 224 0.0 1.7 0.00 0.00 0.00 98 1017.1
20260906085923 65 203 0.0 1.7 0.00 0.00 0.00 98 1017.1
20260906085421 65 329 0.0 1.7 0.00 0.00 0.00 98 1016.7
20260906084922 65 37 0.0 0.0 0.00 0.00 0.00 97 1017.1
20260906084422 65 217 0.0 0.0 0.00 0.00 0.00 97 1016.7
20260906083923 65 322 0.0 0.0 0.00 0.00 0.00 97 1016.7
20260906083421 66 322 0.0 0.9 0.00 0.00 0.00 97 1016.7
20260906082920 66 142 0.0 0.9 0.00 0.00 0.00 97 1016.7
20260906082419 66 6 0.0 0.0 0.00 0.00 0.00 97 1016.7
20260906081933 66 37 0.0 0.0 0.00 0.00 0.00 97 1017.1
20260906081417 66 309 0.0 0.0 0.00 0.00 0.00 97 1017.1
20260906080916 66 231 0.0 0.0 0.00 0.00 0.00 97 1017.1
20260906080416 66 129 0.0 0.0 0.00 0.00 0.00 97 1017.1
20260906075916 66 129 0.0 0.0 0.00 0.00 0.00 97 1016.7
20260906075415 67 129 0.0 0.0 0.00 0.00 0.00 97 1017.1
20260906074915 67 50 0.0 0.0 0.00 0.00 0.00 97 1017.1
20260906074414 67 50 0.0 0.0 0.00 0.00 0.00 97 1017.1
20260906073913 67 129 0.0 0.9 0.00 0.00 0.00 97 1016.7
20260906073413 67 129 0.0 0.9 0.00 0.00 0.00 96 1017.1
20260906072913 67 50 0.0 0.0 0.00 0.00 0.00 96 1017.1
20260906072411 67 142 0.0 0.9 0.00 0.00 0.00 96 1017.1
20260906071913 67 142 0.0 0.9 0.00 0.00 0.00 96 1017.1
20260906071411 67 127 0.0 0.0 0.00 0.00 0.00 96 1017.1
20260906070912 67 142 0.0 0.9 0.00 0.00 0.00 95 1017.1
20260906070411 68 129 0.0 0.9 0.00 0.00 0.00 95 1017.1
20260906065909 68 135 0.0 0.9 0.00 0.00 0.00 95 1017.1
20260906065638 68 142 0.0 0.9 0.00 0.00 0.00 95 1017.1
20260906064911 68 142 0.0 0.9 0.00 0.00 0.00 95 1017.1
20260906064407 68 142 0.0 0.9 0.00 0.00 0.00 95 1017.1
20260906063908 68 228 0.0 1.7 0.00 0.00 0.00 95 1017.1
20260906063848 68 110 0.0 1.7 0.00 0.00 0.00 95 1017.1
20260906062906 68 53 0.0 1.7 0.00 0.00 0.00 94 1017.1
20260906062408 69 60 0.0 2.6 0.00 0.00 0.00 94 1017.1
20260906061905 69 33 0.9 2.6 0.00 0.00 0.00 94 1017.1
20260906061404 69 44 1.7 2.6 0.00 0.00 0.00 94 1017.1
20260906060905 69 15 0.9 3.5 0.00 0.00 0.00 94 1017.1
20260906060404 69 77 0.9 3.5 0.00 0.00 0.00 94 1017.1
20260906055905 69 89 0.0 3.5 0.00 0.00 0.00 93 1017.1
20260906055404 69 63 0.9 3.5 0.00 0.00 0.00 93 1017.1
20260906054903 69 1 1.7 3.5 0.00 0.00 0.00 93 1017.1
20260906054402 69 89 1.7 2.6 0.00 0.00 0.00 93 1017.1
20260906053902 69 323 0.9 2.6 0.00 0.00 0.00 93 1017.1
20260906053402 69 79 0.0 3.5 0.00 0.00 0.00 93 1017.1
20260906052900 69 67 1.7 3.5 0.00 0.00 0.00 93 1017.1
20260906052402 69 26 0.0 3.5 0.00 0.00 0.00 93 1017.1
20260906051900 69 13 0.0 2.6 0.00 0.00 0.00 93 1016.7
20260906051359 69 344 0.9 3.5 0.00 0.00 0.00 93 1017.1
20260906050858 69 5 0.0 3.5 0.00 0.00 0.00 93 1016.7
20260906050359 70 39 0.9 3.5 0.00 0.00 0.00 92 1016.7
20260906045858 70 72 2.6 3.5 0.00 0.00 0.00 92 1016.7
20260906045358 70 82 2.6 6.1 0.00 0.00 0.00 92 1016.7
20260906044858 70 68 1.7 6.1 0.00 0.00 0.00 92 1016.7
20260906044359 70 33 0.9 3.5 0.00 0.00 0.00 92 1016.4
20260906043857 70 124 0.9 7.8 0.00 0.00 0.00 92 1016.7
20260906043355 70 86 3.5 7.8 0.00 0.00 0.00 92 1016.7
20260906042855 70 86 2.6 5.2 0.00 0.00 0.00 92 1016.4
20260906042353 70 59 1.7 4.3 0.00 0.00 0.00 92 1016.4
20260906041854 70 50 1.7 3.5 0.00 0.00 0.00 91 1016.7
20260906041354 70 13 1.7 4.3 0.00 0.00 0.00 91 1016.4
20260906040855 70 100 2.6 4.3 0.00 0.00 0.00 91 1016.4
20260906040611 70 0 1.7 6.1 0.00 0.00 0.00 91 1016.0
20260906035852 70 66 3.5 6.1 0.00 0.00 0.00 91 1016.4
20260906035352 70 106 2.6 6.1 0.00 0.00 0.00 91 1016.0
20260906034850 70 77 3.5 5.2 0.00 0.00 0.00 91 1016.4
20260906034351 70 66 3.5 5.2 0.00 0.00 0.00 91 1016.0
20260906034059 70 80 2.6 4.3 0.00 0.00 0.00 90 1016.0
20260906033953 70 48 1.7 4.3 0.00 0.00 0.00 90 1016.0
20260906032849 70 78 3.5 4.3 0.00 0.00 0.00 90 1016.0
20260906032400 70 87 2.6 5.2 0.00 0.00 0.00 90 1016.0
20260906031847 70 70 2.6 5.2 0.00 0.00 0.00 90 1016.0
20260906031348 70 91 1.7 3.5 0.00 0.00 0.00 90 1016.0
20260906030847 70 89 1.7 4.3 0.00 0.00 0.00 90 1016.0
20260906030345 70 82 1.7 5.2 0.00 0.00 0.00 90 1015.7
20260906030111 70 89 3.5 5.2 0.00 0.00 0.00 90 1015.7
20260906025400 71 80 2.6 4.3 0.00 0.00 0.00 89 1015.4
20260906025109 71 82 2.6 4.3 0.00 0.00 0.00 89 1016.0
20260906024601 71 79 1.7 5.2 0.00 0.00 0.00 89 1015.7
20260906023845 71 92 3.5 5.2 0.00 0.00 0.00 89 1015.7
20260906023345 71 89 1.7 5.2 0.00 0.00 0.00 90 1015.7
20260906022841 71 59 1.7 5.2 0.00 0.00 0.00 90 1015.7
20260906022342 71 88 1.7 7.8 0.00 0.00 0.00 89 1015.7
20260906021840 71 78 6.1 7.8 0.00 0.00 0.00 89 1015.7
20260906021341 71 94 0.9 5.2 0.00 0.00 0.00 89 1015.7
20260906020840 71 69 2.6 8.7 0.00 0.00 0.00 89 1015.7
20260906020339 71 76 3.5 9.6 0.00 0.00 0.00 89 1015.7
20260906020101 71 81 2.6 9.6 0.00 0.00 0.00 88 1015.7
20260906015340 71 80 5.2 7.0 0.00 0.00 0.00 88 1015.7
20260906014841 71 25 2.6 7.0 0.00 0.00 0.00 88 1015.7
20260906014338 71 4 0.9 5.2 0.00 0.00 0.00 88 1015.7
20260906014055 71 84 2.6 5.2 0.00 0.00 0.00 89 1016.0
20260906013337 71 40 1.7 6.1 0.00 0.00 0.00 88 1015.7
20260906012836 71 93 1.7 6.1 0.00 0.00 0.00 88 1016.0
20260906012338 71 66 1.7 6.1 0.00 0.00 0.00 88 1016.0
20260906011835 71 106 3.5 5.2 0.00 0.00 0.00 88 1015.7
20260906011336 71 70 2.6 5.2 0.00 0.00 0.00 88 1016.0
20260906011106 71 68 1.7 6.1 0.00 0.00 0.00 89 1015.7
20260906010334 71 83 4.3 6.1 0.00 0.00 0.00 89 1015.7
20260906005833 71 79 2.6 5.2 0.00 0.00 0.00 89 1015.7
20260906005334 71 53 1.7 6.1 0.00 0.00 0.00 89 1015.7
20260906005055 71 118 2.6 6.1 0.00 0.00 0.00 89 1015.7
20260906004331 72 86 3.5 8.7 0.00 0.00 0.00 89 1015.7
20260906003832 72 47 2.6 8.7 0.00 0.00 0.00 88 1015.7
20260906003338 72 26 4.3 8.7 0.00 0.00 0.00 87 1015.7
20260906002831 73 75 2.6 7.8 0.00 0.00 0.00 87 1015.7
20260906002330 73 55 0.0 10.4 0.00 0.00 0.00 87 1015.4
20260906001829 73 13 2.6 10.4 0.00 0.00 0.00 86 1015.4
20260906001329 74 68 5.2 7.8 0.00 0.00 0.00 86 1015.4
20260906000828 74 86 5.2 7.0 0.00 0.00 0.00 85 1015.0
20260906000327 74 81 3.5 4.3 0.00 0.00 0.00 86 1015.4
20260905235827 75 126 0.0 5.2 0.00 0.00 0.00 85 1015.0
20260905235554 75 352 1.7 5.2 0.00 0.00 0.00 84 1015.0
20260905234825 75 352 1.7 6.1 0.00 0.00 0.00 83 1015.0
20260905234325 75 50 3.5 7.8 0.00 0.00 0.00 83 1014.7
20260905233824 76 45 1.7 7.8 0.00 0.00 0.00 84 1015.0
20260905233324 76 70 1.7 6.1 0.00 0.00 0.00 83 1014.7
20260905232826 76 346 3.5 6.1 0.00 0.00 0.00 83 1015.0
20260905232323 76 45 0.9 5.2 0.00 0.00 0.00 83 1015.0
20260905231824 76 64 2.6 6.1 0.00 0.00 0.00 83 1015.0
20260905231323 77 85 5.2 6.1 0.00 0.00 0.00 83 1014.7
20260905230824 77 98 1.7 7.0 0.00 0.00 0.00 82 1014.7
20260905230333 78 99 2.6 7.0 0.00 0.00 0.00 81 1014.7
20260905225820 78 47 1.7 6.1 0.00 0.00 0.00 80 1014.3
20260905225323 78 52 4.3 6.1 0.00 0.00 0.00 80 1014.3
20260905224821 79 59 1.7 5.2 0.00 0.00 0.00 80 1014.3
20260905224321 79 37 3.5 5.2 0.00 0.00 0.00 79 1014.3
20260905223819 80 31 3.5 5.2 0.00 0.00 0.00 77 1014.3
20260905223318 80 174 1.7 5.2 0.00 0.00 0.00 76 1014.3
20260905222820 80 18 0.0 6.1 0.00 0.00 0.00 75 1014.0
20260905222317 80 334 3.5 6.1 0.00 0.00 0.00 74 1014.0
20260905221818 80 73 3.5 5.2 0.00 0.00 0.00 75 1014.3
20260905221318 80 357 1.7 4.3 0.00 0.00 0.00 76 1014.3
20260905220817 80 62 2.6 8.7 0.00 0.00 0.00 76 1014.0
20260905220314 80 332 1.7 8.7 0.00 0.00 0.00 75 1014.3
20260905215814 80 88 2.6 7.0 0.00 0.00 0.00 74 1014.0
20260905215314 80 353 0.9 3.5 0.00 0.00 0.00 75 1014.0
20260905215035 80 32 0.9 4.3 0.00 0.00 0.00 76 1014.3
20260905214755 80 343 2.6 5.2 0.00 0.00 0.00 76 1014.3
20260905213813 80 340 3.5 3.5 0.00 0.00 0.00 75 1014.3
20260905213314 80 24 0.9 5.2 0.00 0.00 0.00 76 1014.3
20260905212812 80 72 3.5 5.2 0.00 0.00 0.00 76 1014.3
20260905212310 80 299 0.0 4.3 0.00 0.00 0.00 76 1014.0
20260905211812 80 25 1.7 4.3 0.00 0.00 0.00 76 1014.3
20260905211311 80 7 2.6 4.3 0.00 0.00 0.00 77 1014.0
20260905210810 80 18 0.9 5.2 0.00 0.00 0.00 77 1014.3
20260905210534 80 352 1.7 5.2 0.00 0.00 0.00 77 1014.3
20260905205808 80 3 1.7 6.1 0.00 0.00 0.00 78 1014.3
20260905205309 80 81 1.7 6.1 0.00 0.00 0.00 77 1014.3
20260905205026 80 62 5.2 5.2 0.00 0.00 0.00 79 1014.3
20260905204309 79 247 0.9 4.3 0.00 0.00 0.00 81 1014.3
20260905203806 79 20 3.5 4.3 0.00 0.00 0.00 81 1014.3
20260905203308 79 96 2.6 6.1 0.00 0.00 0.00 81 1014.7
20260905202806 79 318 2.6 6.1 0.00 0.00 0.00 81 1014.7
20260905202306 78 14 0.0 3.5 0.00 0.00 0.00 82 1014.7
20260905201819 78 18 0.9 3.5 0.00 0.00 0.00 83 1014.3
20260905201305 78 59 3.5 5.2 0.00 0.00 0.00 84 1014.7
20260905200803 77 105 1.7 5.2 0.00 0.00 0.00 83 1014.7
20260905200520 78 12 2.6 5.2 0.00 0.00 0.00 83 1014.7
20260905195804 78 25 5.2 5.2 0.00 0.00 0.00 85 1014.7
20260905195306 77 68 1.7 5.2 0.00 0.00 0.00 85 1014.7
20260905195020 77 12 1.7 5.2 0.00 0.00 0.00 85 1014.7
20260905194301 77 56 3.5 5.2 0.00 0.00 0.00 85 1014.7
20260905193801 77 51 0.9 4.3 0.00 0.00 0.00 85 1014.7
20260905193300 77 30 0.9 7.0 0.00 0.00 0.00 85 1014.7
20260905192800 77 341 2.6 7.0 0.00 0.00 0.00 85 1015.0
20260905192300 77 10 2.6 5.2 0.00 0.00 0.00 85 1015.0
20260905191759 77 61 3.5 5.2 0.00 0.00 0.00 85 1015.0
20260905191300 77 11 2.6 5.2 0.00 0.00 0.00 85 1015.0
20260905190758 77 36 3.5 7.8 0.00 0.00 0.00 85 1015.0
20260905190259 77 22 3.5 7.8 0.00 0.00 0.00 85 1015.0
20260905185757 77 77 1.7 6.1 0.00 0.00 0.00 85 1015.0
20260905185255 78 77 2.6 7.0 0.00 0.00 0.00 85 1015.0
20260905184756 78 50 1.7 7.0 0.00 0.00 0.00 84 1015.0
20260905184514 78 349 4.3 5.2 0.00 0.00 0.00 84 1015.0
20260905183754 78 85 4.3 4.3 0.00 0.00 0.00 85 1015.0
20260905183253 78 7 1.7 8.7 0.00 0.00 0.00 85 1015.0
20260905182754 78 358 7.8 8.7 0.00 0.00 0.00 85 1015.0
20260905182254 78 354 2.6 5.2 0.00 0.00 0.00 85 1015.0
20260905181755 78 41 3.5 5.2 0.00 0.00 0.00 84 1015.0
20260905181513 78 33 3.5 7.0 0.00 0.00 0.00 84 1015.0
20260905180751 78 357 2.6 7.0 0.00 0.00 0.00 84 1015.0
20260905180307 79 4 1.7 6.1 0.00 0.00 0.00 85 1015.0
20260905175751 78 61 2.6 6.1 0.00 0.00 0.00 84 1015.0
20260905175251 79 354 1.7 6.1 0.00 0.00 0.00 83 1015.0
20260905174749 79 75 5.2 6.1 0.00 0.00 0.00 85 1014.7
20260905174518 78 98 1.7 7.0 0.00 0.00 0.00 85 1015.0
20260905173749 79 344 3.5 7.0 0.00 0.00 0.00 84 1014.7
20260905173249 79 79 0.9 4.3 0.00 0.00 0.00 84 1014.7
20260905172747 79 19 2.6 5.2 0.00 0.00 0.00 83 1014.7
20260905172246 80 65 1.7 6.1 0.00 0.00 0.00 82 1014.7
20260905171747 80 80 1.7 6.1 0.00 0.00 0.00 83 1014.7
20260905171246 79 35 1.7 6.1 0.00 0.00 0.00 84 1014.7
20260905170745 80 75 4.3 7.0 0.00 0.00 0.00 83 1014.7
20260905170246 80 187 0.0 7.0 0.00 0.00 0.00 83 1014.7
20260905165744 80 58 3.5 7.0 0.00 0.00 0.00 83 1014.7
20260905165244 80 67 3.5 7.0 0.00 0.00 0.00 83 1014.7
20260905165223 80 9 3.5 8.7 0.00 0.00 0.00 84 1015.0
20260905164508 80 45 2.6 8.7 0.00 0.00 0.00 85 1015.0
20260905164007 80 142 0.9 7.0 0.00 0.00 0.00 84 1015.0
20260905163242 79 11 2.6 5.2 0.00 0.00 0.00 87 1015.0
20260905162742 78 37 0.9 4.3 0.00 0.00 0.00 87 1014.7
20260905162240 78 88 4.3 5.2 0.00 0.00 0.00 87 1015.0
20260905161740 78 33 2.6 5.2 0.00 0.00 0.00 87 1015.0
20260905161456 77 15 0.9 4.3 0.00 0.00 0.00 88 1014.7
20260905160751 77 129 1.7 3.5 0.00 0.00 0.00 90 1015.0
20260905160253 76 56 2.6 4.3 0.00 0.00 0.00 89 1015.0
20260905155737 76 2 1.7 4.3 0.00 0.00 0.00 90 1015.0
20260905155239 76 347 3.5 5.2 0.00 0.00 0.00 90 1015.0
20260905155005 76 87 2.6 5.2 0.00 0.00 0.00 91 1015.0
20260905154237 76 62 2.6 4.3 0.00 0.00 0.00 91 1015.0
20260905153958 76 63 3.5 5.2 0.00 0.00 0.00 91 1014.7
20260905153235 75 105 1.7 6.1 0.00 0.00 0.00 91 1014.7
20260905152736 75 22 1.7 6.1 0.00 0.00 0.00 91 1014.7
20260905152456 76 359 2.6 3.5 0.00 0.00 0.00 90 1014.7
20260905151735 76 71 2.6 4.3 0.00 0.00 0.00 93 1014.3
20260905151234 75 31 1.7 7.8 0.00 0.00 0.00 92 1014.3
20260905150734 75 72 2.6 7.8 0.00 0.00 0.00 93 1014.3
20260905150502 74 81 1.7 6.1 0.00 0.00 0.00 94 1014.3
20260905145733 74 30 1.7 5.2 0.00 0.00 0.00 94 1014.3
20260905145231 74 125 1.7 5.2 0.00 0.00 0.00 95 1014.3
20260905144731 74 9 0.0 7.0 0.00 0.00 0.00 96 1014.3
20260905144230 73 70 5.2 7.0 0.00 0.00 0.00 96 1014.3
20260905143730 73 62 1.7 6.1 0.00 0.00 0.00 96 1014.3
20260905143230 73 1 1.7 6.1 0.00 0.00 0.00 97 1014.3
20260905142728 73 70 2.6 5.2 0.00 0.00 0.00 97 1014.0
20260905142229 73 79 2.6 5.2 0.00 0.00 0.00 97 1014.0
20260905141730 72 27 3.5 7.8 0.00 0.00 0.00 97 1014.3
20260905141227 72 57 2.6 7.8 0.00 0.00 0.00 97 1014.3
20260905140728 72 13 2.6 7.8 0.00 0.00 0.00 98 1014.3
20260905140225 72 75 5.2 7.8 0.00 0.00 0.00 98 1014.0
20260905135727 72 61 4.3 7.8 0.00 0.00 0.00 98 1014.0
20260905135226 72 104 2.6 7.8 0.00 0.00 0.00 98 1014.0
20260905134725 72 16 0.9 7.8 0.00 0.00 0.00 98 1014.3
20260905134225 72 84 3.5 5.2 0.00 0.00 0.00 98 1014.0
20260905133725 72 59 3.5 8.7 0.00 0.00 0.00 98 1014.0
20260905133224 72 84 3.5 8.7 0.00 0.00 0.00 98 1014.0
20260905132735 72 343 4.3 5.2 0.00 0.00 0.00 98 1014.3
20260905132224 73 65 2.6 5.2 0.00 0.00 0.00 98 1014.0
20260905131722 73 78 2.6 5.2 0.00 0.00 0.00 98 1014.3
20260905131220 73 78 2.6 4.3 0.00 0.00 0.00 98 1014.3
20260905130723 73 56 1.7 3.5 0.00 0.00 0.00 98 1014.3
20260905130221 73 64 1.7 3.5 0.00 0.00 0.00 98 1014.3
20260905125719 73 54 2.6 3.5 0.00 0.00 0.00 98 1014.0
20260905125220 73 65 1.7 5.2 0.00 0.00 0.00 98 1013.7
20260905124718 73 58 1.7 3.5 0.00 0.00 0.00 98 1013.7
20260905124220 73 22 0.9 3.5 0.00 0.00 0.00 98 1013.3
20260905123937 73 63 1.7 3.5 0.00 0.00 0.00 98 1013.7
20260905123218 73 111 1.7 3.5 0.00 0.00 0.00 98 1013.3
20260905122718 73 40 1.7 3.5 0.00 0.00 0.00 98 1013.3
20260905122217 73 38 0.0 1.7 0.00 0.00 0.00 98 1012.9
20260905121717 73 80 1.7 1.7 0.00 0.00 0.00 98 1012.9
20260905121214 73 124 0.9 3.5 0.00 0.00 0.00 98 1013.3
20260905120715 73 89 0.0 3.5 0.00 0.00 0.00 98 1012.9
20260905120448 73 96 1.7 2.6 0.00 0.00 0.00 98 1012.9
20260905115930 73 97 0.9 2.6 0.00 0.00 0.00 98 1012.9
20260905115215 73 343 0.0 2.6 0.00 0.00 0.00 98 1012.9
20260905114714 73 89 0.0 3.5 0.00 0.00 0.00 98 1012.9
20260905114212 73 25 0.0 3.5 0.00 0.00 0.00 98 1012.9
20260905113713 73 57 0.9 2.6 0.00 0.00 0.00 98 1012.5
20260905113212 73 50 0.0 2.6 0.00 0.00 0.00 98 1012.5